Weather Roundup
Issued by NWS Springfield, MO

Home | Current Version | Previous Version | Text Only | Print | Product List | Glossary On
Versions: 1 2 3 4 5 6 7 8 9 10 11 12 13 14 15 16 17 18 19 20 21 22 23 24 25 26 27 28 29 30 31 32 33 34 35 36 37 38 39 40 41 42 43 44 45 46 47 48 49 50
000
NZUS99 KSGF 280457
HRRSGF

HOURLY WEATHER
NATIONAL WEATHER SERVICE SPRINGFIELD MO
1200 AM CDT WED SEP 28 2016

......SGF CWA......

CITY           SKY/WX    TMP DP  RH WIND       PRES   REMARKS
SPRINGFIELD    CLEAR     59  48  67 SW8       29.93S
JOPLIN         CLEAR     67  49  52 SW13      29.95R
WEST PLAINS    CLEAR     60  49  66 SW6       29.96S
ROLLA          CLEAR     60  52  74 S10       29.88S

......SURROUNDING SGF CWA......

CITY           SKY/WX    TMP DP  RH WIND       PRES   REMARKS
CHANUTE        CLEAR     63  54  72 SW6       29.92S
PARSONS        CLEAR     56  53  90 CALM      29.94S
COFFEYVILLE    CLEAR     62  52  69 S5        29.94S
EMPORIA        CLEAR     64  55  72 SW9       29.91S
HARRISON AR    CLEAR     63  47  55 SW5       29.98S

......KANSAS AND MISSOURI......

CITY           SKY/WX    TMP DP  RH WIND       PRES   REMARKS
KANSAS CTY INT CLEAR     62  54  74 SW6       29.87S
SEDALIA        CLEAR     64  56  75 SW10      29.87F
ST JOSEPH      CLEAR     56  55  97 CALM      29.86F
ST LOUIS       CLEAR     65  52  62 W6        29.84F
WICHITA        CLEAR     64  55  72 S6        29.94S
TOPEKA         CLEAR     59  56  89 CALM      29.88S
OLATHE         CLEAR     60  55  83 SW5       29.88F

......TENNESSEE......

CITY           SKY/WX    TMP DP  RH WIND       PRES   REMARKS
MEMPHIS        NOT AVBL
NASHVILLE      CLEAR     55  49  80 S5        29.95F

......ARKANSAS.......

CITY           SKY/WX    TMP DP  RH WIND       PRES   REMARKS
FAYETTEVILLE   CLEAR     54  52  93 S9        30.00S
FT SMITH       CLEAR     61  49  64 CALM      29.98S
LITTLE ROCK    CLEAR     62  54  74 CALM      29.98S

......OKLAHOMA.......

CITY           SKY/WX    TMP DP  RH WIND       PRES   REMARKS
TULSA          CLEAR     71  50  47 SW12      29.96S
PONCA CITY     CLEAR     66  49  54 SW3       29.96R
MCALESTER      PTCLDY    54  49  83 CALM      30.01S
OKLAHOMA CITY  CLEAR     60  50  69 S8        30.01S

......IOWA............

CITY           SKY/WX    TMP DP  RH WIND       PRES   REMARKS
DES MOINES     NOT AVBL
QUAD CITIES    CLOUDY    62  40  44 VRB6      29.77S

......ILLINOIS........

CITY           SKY/WX    TMP DP  RH WIND       PRES   REMARKS
QUINCY         NOT AVBL
CHICAGO        CLOUDY    54  45  71 NE8       29.78F




USA.gov is the U.S. government's official web portal to all federal, state and local government web resources and services.